Home > Weather > U.S.A. > Madison > Past weeks

Flag for U.S.A. Weather past 2 weeks in Madison, Wisconsin, U.S.A.

35 °F


Feels Like: 28 °F
Forecast: 27 / 35 °F
Wind: 9 mph from Southwest

Location: Dane County Regional-Truax Field

Current Time: Dec 1, 2015 at 6:30:34 PM

Latest Report: Dec 1, 2015 at 5:53 PM

Visibility: 10 mi

Pressure: 29.80 "Hg

Humidity: 75%

Dew point: 28 °F

Location of MadisonLocation

Historic Weather in Madison — Graph


Madison temperature yesterday

Maximum temperature yesterday: 40 °F (at 1:53 PM)
Minimum temperature yesterday: 33 °F (at 4:53 AM)
Average temperature yesterday: 37 °F

Past Weeks' High & Low Weather Summary

High59 °F (Nov 18, 12:53 AM)100% (Nov 26, 4:53 PM)30.54 "Hg (Nov 26, 4:53 PM)
Low10 °F (Nov 22, 4:53 AM)33% (Nov 20, 12:53 PM)29.32 "Hg (Nov 18, 11:53 AM)
Average36 °F78%30.08 "Hg
* Reported Nov 16 4:53 PM — Dec 1 4:53 PM, Madison, Weather by CustomWeather, © 2015

Note: Actual official high and low records may vary slightly from our data, if they occured in-between our weather recording intervals... More about our weather records


Madison weather history for previous 24 hours

Time TempWeatherWind HumidityBarometerVisibility
4:53 PM
Tue, Dec 1
35 °FOvercast.7 mph75%29.79 "Hg10 mi
3:53 PM36 °FMostly cloudy.7 mph70%29.78 "Hg10 mi
2:53 PM36 °FMostly cloudy.10 mph70%29.76 "Hg10 mi
1:53 PM36 °FMostly cloudy.5 mph67%29.77 "Hg10 mi
12:53 PM37 °FBroken clouds.8 mph67%29.77 "Hg10 mi
11:53 AM35 °FPartly sunny.7 mph72%29.78 "Hg10 mi
10:53 AM35 °FOvercast.9 mph75%29.79 "Hg10 mi
10:03 AM36 °FPartly sunny.7 mph75%29.77 "Hg10 mi
9:53 AM36 °FBroken clouds.9 mph75%29.79 "Hg10 mi
8:53 AM37 °FMore clouds than sun.9 mph86%29.78 "Hg10 mi
7:58 AM37 °FMore clouds than sun.10 mph86%29.75 "Hg10 mi
6:53 AM39 °FMostly cloudy.7 mph86%29.76 "Hg10 mi
6:02 AM39 °FPassing clouds.6 mph93%29.73 "Hg10 mi
4:53 AM40 °FFog.7 mph97%29.76 "Hg5 mi
3:53 AM40 °FFog.9 mph97%29.77 "Hg6 mi
2:53 AM40 °FLight rain. Fog.9 mph97%29.80 "Hg2 mi
1:53 AM39 °FLight rain. Fog.N/A96%29.81 "Hg3 mi
12:53 AM39 °FLow clouds.N/A96%29.81 "Hg10 mi
11:53 PM
Mon, Nov 30
39 °FLow clouds.14 mph93%29.84 "Hg7 mi
10:53 PM39 °FLight rain. Fog.13 mph93%29.88 "Hg5 mi
9:53 PM39 °FLight rain. Fog.12 mph93%29.90 "Hg2 mi
8:53 PM39 °FRain. Fog.10 mph93%29.93 "Hg4 mi
8:04 PM39 °FLight rain. Fog.10 mph89%29.93 "Hg5 mi
6:53 PM39 °FLight rain. Overcast.10 mph86%29.96 "Hg9 mi
Weather by CustomWeather, © 2015

See weather overviewHow to use our weather pages